CYBQ

Tadoule Lake  Airport

Tadoule Lake, Manitoba, Canada
Issued Wind Visibility Ceiling Temperature Dew Point Humidity Barometer
Nov-24
14:00 UTC
330°
6 KTS
9 miles Overcast
500' AGL
-23° C
-9° F
-25° C
-13° F
84% 29.4" Hg
999.3 hPa
IFR
Nov-24
13:00 UTC
340°
8 KTS
9 miles Broken
900' AGL
-23° C
-9° F
-26° C
-15° F
77% 29.37" Hg
998.3 hPa
IFR
Nov-24
12:00 UTC
330°
6 KTS
9 miles   -22° C
-8° F
-25° C
-13° F
77% 29.34" Hg
997.2 hPa
VFR
Nov-24
11:00 UTC
340°
6 KTS
9 miles Overcast
7,500' AGL
-21° C
-6° F
-23° C
-9° F
84% 29.31" Hg
996.4 hPa
VFR
Nov-24
10:33 UTC
340°
6 KTS
6 miles Overcast
4,600' AGL
-21° C
-6° F
-23° C
-9° F
84% 29.31" Hg
996.2 hPa
VFR
Nov-24
10:00 UTC
340°
6 KTS
3 miles Overcast
3,600' AGL
-21° C
-6° F
-23° C
-9° F
84% 29.3" Hg
996 hPa
MVFR
Nov-24
09:52 UTC
350°
6 KTS
3 miles Overcast
3,600' AGL
-21° C
-6° F
-23° C
-9° F
84% 29.3" Hg
995.6 hPa
MVFR
Nov-24
09:00 UTC
350°
3 KTS
1 3/4 miles Overcast
3,200' AGL
-21° C
-6° F
-23° C
-9° F
84% 29.29" Hg
995.5 hPa
IFR
Nov-24
08:37 UTC
Varies @2 KTS 1 1/2 miles Overcast
2,600' AGL
-21° C
-6° F
-23° C
-9° F
84% 29.29" Hg
995.4 hPa
IFR
Nov-24
08:00 UTC
Varies @2 KTS 1 1/2 miles Overcast
2,400' AGL
-21° C
-6° F
-23° C
-9° F
84% 29.29" Hg
995.4 hPa
IFR
Nov-24
07:57 UTC
Varies @2 KTS 1 1/2 miles Overcast
2,400' AGL
-21° C
-6° F
-24° C
-11° F
77% 29.29" Hg
995.4 hPa
IFR
Nov-24
07:09 UTC
1 1/4 miles Overcast
2,600' AGL
-21° C
-6° F
-24° C
-11° F
77% 29.29" Hg
995.3 hPa
IFR
Nov-24
06:00 UTC
020°
3 KTS
3/4 miles Vertical visibility
1,900' AGL
-22° C
-8° F
-24° C
-11° F
84% 29.3" Hg
995.7 hPa
LIFR
Nov-24
05:33 UTC
360°
4 KTS
1 1/4 miles Overcast
2,400' AGL
-22° C
-8° F
-24° C
-11° F
84% 29.3" Hg
995.8 hPa
IFR
Nov-24
05:00 UTC
010°
3 KTS
1 3/4 miles Overcast
3,000' AGL
-22° C
-8° F
-24° C
-11° F
84% 29.3" Hg
995.8 hPa
IFR
Nov-24
04:42 UTC
2 1/2 miles Overcast
3,200' AGL
-22° C
-8° F
-24° C
-11° F
84% 29.3" Hg
996 hPa
IFR
Nov-24
04:28 UTC
Varies @2 KTS 5 miles Overcast
3,800' AGL
-22° C
-8° F
-24° C
-11° F
84% 29.31" Hg
996.2 hPa
MVFR
Nov-24
04:10 UTC
220°
2 KTS
9 miles Overcast
4,800' AGL
-22° C
-8° F
-24° C
-11° F
84% 29.31" Hg
996.2 hPa
VFR
Nov-24
03:00 UTC
9 miles Overcast
9,000' AGL
-23° C
-9° F
-25° C
-13° F
84% 29.33" Hg
997 hPa
VFR
Nov-24
02:00 UTC
Varies @2 KTS 9 miles Broken
10,000' AGL
-24° C
-11° F
-26° C
-15° F
84% 29.36" Hg
998.1 hPa
VFR
Nov-24
01:00 UTC
240°
4 KTS
9 miles   -23° C
-9° F
-26° C
-15° F
77% 29.38" Hg
998.6 hPa
VFR
Nov-24
00:00 UTC
240°
2 KTS
9 miles   -25° C
-13° F
-27° C
-17° F
83% 29.41" Hg
999.9 hPa
VFR
Nov-23
23:00 UTC
9 miles   -25° C
-13° F
-27° C
-17° F
83% 29.43" Hg
1000.6 hPa
VFR
Nov-23
22:00 UTC
060°
2 KTS
9 miles   -24° C
-11° F
-26° C
-15° F
84% 29.45" Hg
1001.1 hPa
VFR
Nov-23
21:00 UTC
280°
3 KTS
9 miles   -22° C
-8° F
-26° C
-15° F
70% 29.5" Hg
1002.9 hPa
VFR
Nov-23
20:00 UTC
Varies @2 KTS 9 miles   -21° C
-6° F
-25° C
-13° F
70% 29.54" Hg
1003.9 hPa
VFR
Nov-23
19:00 UTC
280°
4 KTS
9 miles   -22° C
-8° F
-26° C
-15° F
70% 29.56" Hg
1004.6 hPa
VFR
Nov-23
18:00 UTC
260°
4 KTS
9 miles   -22° C
-8° F
-26° C
-15° F
70% 29.57" Hg
1005.2 hPa
VFR
Nov-23
17:00 UTC
270°
5 KTS
9 miles   -23° C
-9° F
-27° C
-17° F
70% 29.6" Hg
1006.3 hPa
VFR
Nov-23
16:00 UTC
290°
5 KTS
9 miles   -25° C
-13° F
-27° C
-17° F
83% 29.63" Hg
1007.3 hPa
VFR
Nov-23
15:00 UTC
330°
5 KTS
9 miles   -25° C
-13° F
-28° C
-18° F
76% 29.65" Hg
1007.7 hPa
VFR